Time,TemperatureF,DewpointF,PressureIn,WindDirection,WindDirectionDegrees,WindSpeedMPH,WindSpeedGustMPH,Humidity,HourlyPrecipIn,Conditions,Clouds,dailyrainin,SoftwareType,DateUTC
2013-04-25 00:03:00,66.0,-99.9,29.94,NW,316,21.0,34.0,-999,-99.99,,,-99.99,,2013-04-25 04:03:00,
2013-04-25 00:13:00,66.0,-99.9,29.94,North,-999,-999.0,-999.0,-999,-99.99,,,-99.99,,2013-04-25 04:13:00,
2013-04-25 00:23:00,-999.0,-99.9,29.95,NW,314,16.0,24.0,-999,-99.99,,,-99.99,,2013-04-25 04:23:00,
2013-04-25 00:33:00,65.0,-99.9,29.96,NW,320,17.0,21.0,-999,-99.99,,,-99.99,,2013-04-25 04:33:00,
2013-04-25 00:43:00,64.0,-99.9,29.97,NNW,329,22.0,27.0,-999,-99.99,,,-99.99,,2013-04-25 04:43:00,
2013-04-25 00:52:00,64.0,-99.9,29.98,North,-999,-999.0,-999.0,-999,-99.99,,,-99.99,,2013-04-25 04:52:00,
2013-04-25 01:03:00,62.0,-99.9,30.00,NW,320,27.0,37.0,-999,-99.99,,,-99.99,,2013-04-25 05:03:00,
2013-04-25 01:12:00,62.0,-99.9,30.00,North,-999,-999.0,-999.0,-999,-99.99,,,-99.99,,2013-04-25 05:12:00,
2013-04-25 01:22:00,60.0,-99.9,30.01,North,-999,-999.0,-999.0,-999,-99.99,,,-99.99,,2013-04-25 05:22:00,
2013-04-25 01:32:00,59.0,-99.9,30.01,NW,324,15.0,31.0,-999,-99.99,,,-99.99,,2013-04-25 05:32:00,
2013-04-25 01:42:00,59.0,-99.9,30.02,North,-999,-999.0,-999.0,-999,-99.99,,,-99.99,,2013-04-25 05:42:00,
2013-04-25 01:52:00,-999.0,-99.9,30.03,NW,315,16.0,30.0,-999,-99.99,,,-99.99,,2013-04-25 05:52:00,
2013-04-25 02:02:00,58.0,-99.9,30.04,NNW,339,14.0,32.0,-999,-99.99,,,-99.99,,2013-04-25 06:02:00,
2013-04-25 02:12:00,58.0,-99.9,30.04,NNW,341,12.0,27.0,-999,-99.99,,,-99.99,,2013-04-25 06:12:00,
2013-04-25 02:22:00,-999.0,-99.9,30.05,NNW,343,15.0,28.0,-999,-99.99,,,-99.99,,2013-04-25 06:22:00,
2013-04-25 02:32:00,57.0,-99.9,30.06,NW,319,24.0,28.0,-999,-99.99,,,-99.99,,2013-04-25 06:32:00,
2013-04-25 02:42:00,-999.0,-99.9,30.06,NW,318,19.0,22.0,-999,-99.99,,,-99.99,,2013-04-25 06:42:00,
2013-04-25 02:52:00,-999.0,-99.9,30.06,NNW,333,9.0,16.0,-999,-99.99,,,-99.99,,2013-04-25 06:52:00,
2013-04-25 03:02:00,55.0,-99.9,30.06,NNW,340,15.0,20.0,-999,-99.99,,,-99.99,,2013-04-25 07:02:00,
2013-04-25 03:12:00,55.0,-99.9,30.06,NNW,340,15.0,20.0,-999,-99.99,,,-99.99,,2013-04-25 07:12:00,
2013-04-25 03:22:00,-999.0,-99.9,30.08,North,349,13.0,21.0,-999,-99.99,,,-99.99,,2013-04-25 07:22:00,
2013-04-25 03:32:00,53.0,-99.9,30.08,North,359,14.0,21.0,-999,-99.99,,,-99.99,,2013-04-25 07:32:00,
2013-04-25 03:42:00,54.0,-99.9,30.09,North,-999,-999.0,-999.0,-999,-99.99,,,-99.99,,2013-04-25 07:42:00,
2013-04-25 03:53:00,-999.0,-99.9,30.09,NNW,331,15.0,28.0,-999,-99.99,,,-99.99,,2013-04-25 07:53:00,
2013-04-25 04:02:00,52.0,-99.9,30.11,NNW,336,15.0,25.0,-999,-99.99,,,-99.99,,2013-04-25 08:02:00,
2013-04-25 04:11:00,-999.0,-99.9,30.11,NNW,347,12.0,19.0,-999,-99.99,,,-99.99,,2013-04-25 08:11:00,
2013-04-25 04:22:00,51.0,-99.9,30.12,North,-999,-999.0,-999.0,-999,-99.99,,,-99.99,,2013-04-25 08:22:00,
2013-04-25 04:32:00,51.0,-99.9,30.13,NW,326,16.0,21.0,-999,-99.99,,,-99.99,,2013-04-25 08:32:00,
2013-04-25 04:42:00,51.0,-99.9,30.14,NNW,347,14.0,28.0,-999,-99.99,,,-99.99,,2013-04-25 08:42:00,
2013-04-25 04:52:00,-999.0,-99.9,30.15,NNW,335,12.0,30.0,-999,-99.99,,,-99.99,,2013-04-25 08:52:00,
2013-04-25 05:01:00,51.0,-99.9,30.15,NNW,338,13.0,25.0,-999,-99.99,,,-99.99,,2013-04-25 09:01:00,
2013-04-25 05:11:00,-999.0,-99.9,30.15,NNW,339,13.0,24.0,-999,-99.99,,,-99.99,,2013-04-25 09:11:00,
2013-04-25 05:22:00,-999.0,-99.9,30.16,NNW,335,14.0,24.0,-999,-99.99,,,-99.99,,2013-04-25 09:22:00,
2013-04-25 05:33:00,50.0,-99.9,30.17,NNW,336,10.0,21.0,-999,-99.99,,,-99.99,,2013-04-25 09:33:00,
2013-04-25 05:42:00,50.0,-99.9,30.18,NW,318,14.0,21.0,-999,-99.99,,,-99.99,,2013-04-25 09:42:00,
2013-04-25 05:53:00,-999.0,-99.9,30.18,NNW,336,14.0,23.0,-999,-99.99,,,-99.99,,2013-04-25 09:53:00,
2013-04-25 06:03:00,49.0,-99.9,30.19,NW,317,15.0,22.0,-999,-99.99,,,-99.99,,2013-04-25 10:03:00,
2013-04-25 06:12:00,-999.0,-99.9,30.20,NW,320,15.0,22.0,-999,-99.99,,,-99.99,,2013-04-25 10:12:00,
2013-04-25 06:22:00,-999.0,-99.9,30.21,NNW,335,11.0,19.0,-999,-99.99,,,-99.99,,2013-04-25 10:22:00,
2013-04-25 06:33:00,49.0,-99.9,30.22,NNW,339,7.0,15.0,-999,-99.99,,,-99.99,,2013-04-25 10:33:00,
2013-04-25 06:42:00,49.0,-99.9,30.22,North,-999,-999.0,-999.0,-999,-99.99,,,-99.99,,2013-04-25 10:42:00,
2013-04-25 06:53:00,-999.0,-99.9,30.22,NNW,327,14.0,20.0,-999,-99.99,,,-99.99,,2013-04-25 10:53:00,
2013-04-25 07:02:00,48.0,-99.9,30.23,North,360,10.0,20.0,-999,-99.99,,,-99.99,,2013-04-25 11:02:00,
2013-04-25 07:12:00,48.0,-99.9,30.24,North,356,10.0,19.0,-999,-99.99,,,-99.99,,2013-04-25 11:12:00,
2013-04-25 07:22:00,48.0,-99.9,30.24,North,-999,-999.0,-999.0,-999,-99.99,,,-99.99,,2013-04-25 11:22:00,
2013-04-25 07:33:00,48.0,-99.9,30.24,North,349,8.0,15.0,-999,-99.99,,,-99.99,,2013-04-25 11:33:00,
2013-04-25 07:42:00,48.0,-99.9,30.24,North,-999,-999.0,-999.0,-999,-99.99,,,-99.99,,2013-04-25 11:42:00,
2013-04-25 07:52:00,49.0,-99.9,30.25,North,-999,-999.0,-999.0,-999,-99.99,,,-99.99,,2013-04-25 11:52:00,
2013-04-25 08:01:00,49.0,-99.9,30.25,North,351,9.0,15.0,-999,-99.99,,,-99.99,,2013-04-25 12:01:00,
2013-04-25 08:12:00,49.0,-99.9,30.25,NNE,12,6.0,11.0,-999,-99.99,,,-99.99,,2013-04-25 12:12:00,
2013-04-25 08:22:00,-999.0,-99.9,30.26,NNW,348,8.0,12.0,-999,-99.99,,,-99.99,,2013-04-25 12:22:00,
2013-04-25 08:32:00,50.0,-99.9,30.26,North,351,7.0,11.0,-999,-99.99,,,-99.99,,2013-04-25 12:32:00,
2013-04-25 08:42:00,50.0,-99.9,30.26,North,-999,-999.0,-999.0,-999,-99.99,,,-99.99,,2013-04-25 12:42:00,
2013-04-25 08:52:00,50.0,-99.9,30.26,North,-999,-999.0,-999.0,-999,-99.99,,,-99.99,,2013-04-25 12:52:00,
2013-04-25 09:02:00,50.0,-99.9,30.27,North,1,10.0,20.0,-999,-99.99,,,-99.99,,2013-04-25 13:02:00,
2013-04-25 09:11:00,-999.0,-99.9,30.27,North,9,8.0,21.0,-999,-99.99,,,-99.99,,2013-04-25 13:11:00,
2013-04-25 09:21:00,51.0,-99.9,30.27,North,-999,-999.0,-999.0,-999,-99.99,,,-99.99,,2013-04-25 13:21:00,
2013-04-25 09:32:00,51.0,-99.9,30.27,NNW,329,8.0,17.0,-999,-99.99,,,-99.99,,2013-04-25 13:32:00,
2013-04-25 09:42:00,51.0,-99.9,30.27,North,360,6.0,15.0,-999,-99.99,,,-99.99,,2013-04-25 13:42:00,
2013-04-25 09:53:00,-999.0,-99.9,30.27,North,350,7.0,20.0,-999,-99.99,,,-99.99,,2013-04-25 13:53:00,
2013-04-25 10:02:00,51.0,-99.9,30.27,NNW,340,13.0,19.0,-999,-99.99,,,-99.99,,2013-04-25 14:02:00,
2013-04-25 10:11:00,-999.0,-99.9,30.27,North,7,9.0,14.0,-999,-99.99,,,-99.99,,2013-04-25 14:11:00,
2013-04-25 10:22:00,-999.0,-99.9,30.28,NW,322,13.0,17.0,-999,-99.99,,,-99.99,,2013-04-25 14:22:00,
2013-04-25 10:32:00,53.0,-99.9,30.28,NNW,345,9.0,16.0,-999,-99.99,,,-99.99,,2013-04-25 14:32:00,
2013-04-25 10:42:00,52.0,-99.9,30.28,NNW,327,13.0,17.0,-999,-99.99,,,-99.99,,2013-04-25 14:42:00,
2013-04-25 10:52:00,53.0,-99.9,30.28,North,-999,-999.0,-999.0,-999,-99.99,,,-99.99,,2013-04-25 14:52:00,
2013-04-25 11:02:00,53.0,-99.9,30.28,NW,315,11.0,13.0,-999,-99.99,,,-99.99,,2013-04-25 15:02:00,
2013-04-25 11:11:00,-999.0,-99.9,30.28,NW,324,8.0,12.0,-999,-99.99,,,-99.99,,2013-04-25 15:11:00,
2013-04-25 11:21:00,-999.0,-99.9,30.28,NW,309,8.0,11.0,-999,-99.99,,,-99.99,,2013-04-25 15:21:00,
2013-04-25 11:33:00,53.0,-99.9,30.28,NW,316,7.0,15.0,-999,-99.99,,,-99.99,,2013-04-25 15:33:00,
2013-04-25 11:42:00,-999.0,-99.9,30.28,WNW,293,10.0,15.0,-999,-99.99,,,-99.99,,2013-04-25 15:42:00,
2013-04-25 11:53:00,-999.0,-99.9,30.28,NNW,334,4.0,15.0,-999,-99.99,,,-99.99,,2013-04-25 15:53:00,
2013-04-25 12:03:00,54.0,-99.9,30.28,NW,321,11.0,14.0,-999,-99.99,,,-99.99,,2013-04-25 16:03:00,
2013-04-25 12:13:00,55.0,-99.9,30.27,North,354,5.0,15.0,-999,-99.99,,,-99.99,,2013-04-25 16:13:00,
2013-04-25 12:24:00,-999.0,-99.9,30.27,NW,312,10.0,13.0,-999,-99.99,,,-99.99,,2013-04-25 16:24:00,
2013-04-25 12:33:00,54.0,-99.9,30.27,West,270,6.0,9.0,-999,-99.99,,,-99.99,,2013-04-25 16:33:00,
2013-04-25 12:43:00,-999.0,-99.9,30.27,NW,314,9.0,14.0,-999,-99.99,,,-99.99,,2013-04-25 16:43:00,
2013-04-25 12:53:00,56.0,-99.9,30.26,North,-999,-999.0,-999.0,-999,-99.99,,,-99.99,,2013-04-25 16:53:00,
2013-04-25 13:02:00,56.0,-99.9,30.26,WNW,302,6.0,10.0,-999,-99.99,,,-99.99,,2013-04-25 17:02:00,
2013-04-25 13:12:00,56.0,-99.9,30.25,West,271,8.0,11.0,-999,-99.99,,,-99.99,,2013-04-25 17:12:00,
2013-04-25 13:22:00,56.0,-99.9,30.25,North,-999,-999.0,-999.0,-999,-99.99,,,-99.99,,2013-04-25 17:22:00,
2013-04-25 13:32:00,56.0,-99.9,30.25,West,264,8.0,12.0,-999,-99.99,,,-99.99,,2013-04-25 17:32:00,
2013-04-25 13:42:00,-999.0,-99.9,30.25,West,279,5.0,10.0,-999,-99.99,,,-99.99,,2013-04-25 17:42:00,
2013-04-25 13:53:00,-999.0,-99.9,30.25,WSW,243,4.0,13.0,-999,-99.99,,,-99.99,,2013-04-25 17:53:00,
2013-04-25 14:02:00,58.0,-99.9,30.24,WNW,287,8.0,11.0,-999,-99.99,,,-99.99,,2013-04-25 18:02:00,
2013-04-25 14:11:00,-999.0,-99.9,30.24,West,278,8.0,12.0,-999,-99.99,,,-99.99,,2013-04-25 18:11:00,
2013-04-25 14:22:00,58.0,-99.9,30.24,WNW,302,5.0,12.0,-999,-99.99,,,-99.99,,2013-04-25 18:22:00,
2013-04-25 14:32:00,60.0,-99.9,30.23,NW,310,7.0,9.0,-999,-99.99,,,-99.99,,2013-04-25 18:32:00,
2013-04-25 14:43:00,60.0,-99.9,30.23,NW,315,7.0,15.0,-999,-99.99,,,-99.99,,2013-04-25 18:43:00,
2013-04-25 14:53:00,61.0,-99.9,30.23,North,-999,-999.0,-999.0,-999,-99.99,,,-99.99,,2013-04-25 18:53:00,
2013-04-25 15:02:00,61.0,-99.9,30.23,NW,322,5.0,9.0,-999,-99.99,,,-99.99,,2013-04-25 19:02:00,
2013-04-25 15:12:00,61.0,-99.9,30.23,North,-999,-999.0,-999.0,-999,-99.99,,,-99.99,,2013-04-25 19:12:00,
2013-04-25 15:21:00,-999.0,-99.9,30.22,NW,323,8.0,10.0,-999,-99.99,,,-99.99,,2013-04-25 19:21:00,
2013-04-25 15:32:00,61.0,-99.9,30.22,WNW,302,2.0,9.0,-999,-99.99,,,-99.99,,2013-04-25 19:32:00,
2013-04-25 15:42:00,63.0,-99.9,30.22,NNW,330,5.0,11.0,-999,-99.99,,,-99.99,,2013-04-25 19:42:00,
2013-04-25 15:52:00,-999.0,-99.9,30.22,NNW,329,7.0,11.0,-999,-99.99,,,-99.99,,2013-04-25 19:52:00,
2013-04-25 16:02:00,62.0,-99.9,30.22,NW,323,5.0,11.0,-999,-99.99,,,-99.99,,2013-04-25 20:02:00,
2013-04-25 16:12:00,63.0,-99.9,30.21,North,-999,-999.0,-999.0,-999,-99.99,,,-99.99,,2013-04-25 20:12:00,
2013-04-25 16:22:00,-999.0,-99.9,30.21,WSW,254,6.0,8.0,-999,-99.99,,,-99.99,,2013-04-25 20:22:00,
2013-04-25 16:32:00,63.0,-99.9,30.21,NNW,341,4.0,8.0,-999,-99.99,,,-99.99,,2013-04-25 20:32:00,
2013-04-25 16:43:00,64.0,-99.9,30.20,NNW,337,3.0,5.0,-999,-99.99,,,-99.99,,2013-04-25 20:43:00,
2013-04-25 16:52:00,64.0,-99.9,30.20,NW,314,1.0,6.0,-999,-99.99,,,-99.99,,2013-04-25 20:52:00,
2013-04-25 17:01:00,63.0,-99.9,30.20,SSE,161,3.0,3.0,-999,-99.99,,,-99.99,,2013-04-25 21:01:00,
2013-04-25 17:11:00,63.0,-99.9,30.19,North,-999,-999.0,-999.0,-999,-99.99,,,-99.99,,2013-04-25 21:11:00,
2013-04-25 17:22:00,-999.0,-99.9,30.20,NNW,328,4.0,10.0,-999,-99.99,,,-99.99,,2013-04-25 21:22:00,
2013-04-25 17:33:00,65.0,-99.9,30.19,NW,316,2.0,6.0,-999,-99.99,,,-99.99,,2013-04-25 21:33:00,
2013-04-25 17:42:00,65.0,-99.9,30.20,North,-999,-999.0,-999.0,-999,-99.99,,,-99.99,,2013-04-25 21:42:00,
2013-04-25 17:53:00,65.0,-99.9,30.20,North,-999,-999.0,-999.0,-999,-99.99,,,-99.99,,2013-04-25 21:53:00,
2013-04-25 18:03:00,64.0,-99.9,30.19,South,170,3.0,6.0,-999,-99.99,,,-99.99,,2013-04-25 22:03:00,
2013-04-25 18:12:00,65.0,-99.9,30.19,SW,230,2.0,3.0,-999,-99.99,,,-99.99,,2013-04-25 22:12:00,
2013-04-25 18:22:00,-999.0,-99.9,30.20,WSW,247,1.0,5.0,-999,-99.99,,,-99.99,,2013-04-25 22:22:00,
2013-04-25 18:33:00,64.0,-99.9,30.19,SSE,159,2.0,5.0,-999,-99.99,,,-99.99,,2013-04-25 22:33:00,
2013-04-25 18:42:00,66.0,-99.9,30.20,North,-999,-999.0,-999.0,-999,-99.99,,,-99.99,,2013-04-25 22:42:00,
2013-04-25 18:53:00,64.0,-99.9,30.20,North,-999,-999.0,-999.0,-999,-99.99,,,-99.99,,2013-04-25 22:53:00,
2013-04-25 19:02:00,64.0,-99.9,30.20,SSE,158,2.0,4.0,-999,-99.99,,,-99.99,,2013-04-25 23:02:00,
2013-04-25 19:12:00,65.0,-99.9,30.20,SSW,202,2.0,3.0,-999,-99.99,,,-99.99,,2013-04-25 23:12:00,
2013-04-25 19:22:00,-999.0,-99.9,30.20,South,189,0.0,1.0,-999,-99.99,,,-99.99,,2013-04-25 23:22:00,
2013-04-25 19:32:00,67.0,-99.9,30.20,South,184,1.0,1.0,-999,-99.99,,,-99.99,,2013-04-25 23:32:00,
2013-04-25 19:42:00,-999.0,-99.9,30.20,SSE,168,2.0,3.0,-999,-99.99,,,-99.99,,2013-04-25 23:42:00,
2013-04-25 19:52:00,64.0,-99.9,30.20,North,-999,-999.0,-999.0,-999,-99.99,,,-99.99,,2013-04-25 23:52:00,
2013-04-25 20:01:00,64.0,-99.9,30.20,South,191,2.0,3.0,-999,-99.99,,,-99.99,,2013-04-26 00:01:00,
2013-04-25 20:11:00,62.0,-99.9,30.21,SSW,197,2.0,2.0,-999,-99.99,,,-99.99,,2013-04-26 00:11:00,
2013-04-25 20:22:00,-999.0,-99.9,30.21,South,173,3.0,4.0,-999,-99.99,,,-99.99,,2013-04-26 00:22:00,
2013-04-25 20:32:00,62.0,-99.9,30.21,SSE,154,4.0,5.0,-999,-99.99,,,-99.99,,2013-04-26 00:32:00,
2013-04-25 20:42:00,62.0,-99.9,30.21,North,-999,-999.0,-999.0,-999,-99.99,,,-99.99,,2013-04-26 00:42:00,
2013-04-25 20:52:00,-999.0,-99.9,30.21,SSE,148,3.0,4.0,-999,-99.99,,,-99.99,,2013-04-26 00:52:00,
2013-04-25 21:01:00,61.0,-99.9,30.22,SE,134,6.0,9.0,-999,-99.99,,,-99.99,,2013-04-26 01:01:00,
2013-04-25 21:11:00,60.0,-99.9,30.23,SE,125,6.0,9.0,-999,-99.99,,,-99.99,,2013-04-26 01:11:00,
2013-04-25 21:22:00,-999.0,-99.9,30.23,SE,132,9.0,12.0,-999,-99.99,,,-99.99,,2013-04-26 01:22:00,
2013-04-25 21:32:00,59.0,-99.9,30.24,SE,128,6.0,8.0,-999,-99.99,,,-99.99,,2013-04-26 01:32:00,
2013-04-25 21:42:00,58.0,-99.9,30.24,North,-999,-999.0,-999.0,-999,-99.99,,,-99.99,,2013-04-26 01:42:00,
2013-04-25 21:52:00,-999.0,-99.9,30.25,SE,130,5.0,12.0,-999,-99.99,,,-99.99,,2013-04-26 01:52:00,
2013-04-25 22:02:00,58.0,-99.9,30.25,SE,136,7.0,12.0,-999,-99.99,,,-99.99,,2013-04-26 02:02:00,
2013-04-25 22:12:00,57.0,-99.9,30.25,North,-999,-999.0,-999.0,-999,-99.99,,,-99.99,,2013-04-26 02:12:00,
2013-04-25 22:22:00,57.0,-99.9,30.26,North,-999,-999.0,-999.0,-999,-99.99,,,-99.99,,2013-04-26 02:22:00,
2013-04-25 22:32:00,56.0,-99.9,30.27,WSW,240,3.0,5.0,-999,-99.99,,,-99.99,,2013-04-26 02:32:00,
2013-04-25 22:42:00,56.0,-99.9,30.27,SSW,205,4.0,5.0,-999,-99.99,,,-99.99,,2013-04-26 02:42:00,
2013-04-25 22:52:00,56.0,-99.9,30.28,North,-999,-999.0,-999.0,-999,-99.99,,,-99.99,,2013-04-26 02:52:00,
2013-04-25 23:01:00,56.0,-99.9,30.28,SSW,195,3.0,7.0,-999,-99.99,,,-99.99,,2013-04-26 03:01:00,
2013-04-25 23:11:00,55.0,-99.9,30.29,North,-999,-999.0,-999.0,-999,-99.99,,,-99.99,,2013-04-26 03:11:00,
2013-04-25 23:22:00,-999.0,-99.9,30.29,South,174,4.0,8.0,-999,-99.99,,,-99.99,,2013-04-26 03:22:00,
2013-04-25 23:33:00,56.0,-99.9,30.29,SSE,168,8.0,10.0,-999,-99.99,,,-99.99,,2013-04-26 03:33:00,
2013-04-25 23:43:00,56.0,-99.9,30.30,SSW,194,6.0,7.0,-999,-99.99,,,-99.99,,2013-04-26 03:43:00,
2013-04-25 23:53:00,56.0,-99.9,30.30,North,-999,-999.0,-999.0,-999,-99.99,,,-99.99,,2013-04-26 03:53:00,